User: anonymous   Login
Location: Unspecified
(0.0000°N, 0.0000°E)
Time: 22:22:40
(UTC+00:00)
Language:

STARLINK-33577 - Orbit

View from above orbital plane
View from above orbital plane
View from above satellite
View from above satellite

Ground track
Ground track

The orbit is defined by the following mean orbital elements,

1 62762U          26145.52559420 +.00000000 +00000-0 +52022-3 0 00000
2 62762  53.1589 324.9538 0001101  98.9195 261.1931 15.31710399    06
Epoch (UTC): 25 May 2026 12:36:51
Eccentricity: 0.0001101
inclination: 53.1589°
perigee height: 470 km
apogee height: 471 km
right ascension of ascending node: 324.9538°
argument of perigee: 98.9195°
revolutions per day: 15.31710399
mean anomaly at epoch: 261.1931°

The dashed part of the orbit path shows where the satellite is in the earth's shadow,  

DLR